• In Belgium
  • List of Countries
  • For 7 days
  • Water Temperature
  • Satellite Maps
  • Weather Map
  • Weather Widgets
  • user-avatar
    Login

    Hourly Weather Perth

    Today, 25 February, Sunday

    Time Temperature Precipitation Wind Pressure Humidity
    00:00 +27°C° 0 mm 5 mps 756 mmHg 46%
    01:00 +27°C° 0 mm 5 mps 756 mmHg 49%
    02:00 +26°C° 0 mm 6 mps 756 mmHg 51%
    03:00 +26°C° 0 mm 6 mps 755 mmHg 53%
    04:00 +26°C° 0 mm 5 mps 755 mmHg 54%
    05:00 +26°C° 0 mm 5 mps 755 mmHg 56%
    06:00 +26°C° 0 mm 5 mps 755 mmHg 56%
    07:00 +27°C° 0 mm 5 mps 755 mmHg 56%
    08:00 +27°C° 0 mm 4 mps 755 mmHg 56%
    09:00 +29°C° 0.5 mm 4 mps 755 mmHg 52%
    10:00 +32°C° 0.5 mm 4 mps 754 mmHg 48%
    11:00 +34°C° 0.5 mm 3 mps 754 mmHg 45%
    12:00 +34°C° 0.2 mm 3 mps 754 mmHg 44%
    13:00 +34°C° 0.2 mm 3 mps 753 mmHg 43%
    14:00 +33°C° 0 mm 4 mps 753 mmHg 49%
    15:00 +33°C° 0.1 mm 4 mps 753 mmHg 48%
    16:00 +33°C° 0.1 mm 3 mps 753 mmHg 46%
    17:00 +34°C° 0.1 mm 3 mps 752 mmHg 44%
    18:00 +32°C° 0 mm 4 mps 753 mmHg 51%
    19:00 +29°C° 0 mm 4 mps 753 mmHg 59%
    20:00 +27°C° 0 mm 4 mps 753 mmHg 66%
    21:00 +26°C° 0 mm 4 mps 753 mmHg 69%
    22:00 +25°C° 0 mm 4 mps 753 mmHg 73%
    23:00 +24°C° 0 mm 3 mps 753 mmHg 77%

    Tomorrow, 26 February, Monday

    Time Temperature Precipitation Wind Pressure Humidity
    00:00 +22°C° 0 mm 4 mps 753 mmHg 76%
    01:00 +22°C° 0 mm 4 mps 753 mmHg 76%
    02:00 +22°C° 0 mm 4 mps 753 mmHg 75%
    03:00 +22°C° 0 mm 4 mps 753 mmHg 76%
    04:00 +21°C° 0 mm 4 mps 753 mmHg 76%
    05:00 +21°C° 0 mm 4 mps 753 mmHg 77%
    06:00 +21°C° 0 mm 4 mps 753 mmHg 75%
    07:00 +22°C° 0 mm 4 mps 753 mmHg 73%
    08:00 +22°C° 0 mm 4 mps 753 mmHg 70%
    09:00 +23°C° 0 mm 4 mps 753 mmHg 65%
    10:00 +26°C° 0 mm 5 mps 753 mmHg 59%
    11:00 +27°C° 0 mm 5 mps 753 mmHg 53%
    12:00 +27°C° 0 mm 6 mps 753 mmHg 50%
    13:00 +27°C° 0 mm 6 mps 753 mmHg 47%
    14:00 +28°C° 0 mm 7 mps 753 mmHg 43%
    15:00 +27°C° 0 mm 7 mps 753 mmHg 46%
    16:00 +26°C° 0 mm 7 mps 753 mmHg 48%
    17:00 +24°C° 0 mm 7 mps 754 mmHg 51%
    18:00 +22°C° 0 mm 6 mps 754 mmHg 58%
    19:00 +21°C° 0 mm 6 mps 755 mmHg 65%
    20:00 +20°C° 0 mm 5 mps 755 mmHg 73%
    21:00 +19°C° 0 mm 5 mps 756 mmHg 74%
    22:00 +19°C° 0 mm 4 mps 756 mmHg 75%
    23:00 +18°C° 0 mm 4 mps 757 mmHg 76%

    Day after tomorrow, 27 February, Tuesday

    Time Temperature Precipitation Wind Pressure Humidity
    00:00 +18°C° 0 mm 4 mps 757 mmHg 77%
    01:00 +16°C° 0 mm 5 mps 757 mmHg 79%
    02:00 +16°C° 0 mm 5 mps 757 mmHg 80%
    03:00 +15°C° 0 mm 5 mps 758 mmHg 79%
    04:00 +15°C° 0 mm 5 mps 758 mmHg 77%
    05:00 +14°C° 0 mm 5 mps 758 mmHg 76%
    06:00 +15°C° 0 mm 5 mps 759 mmHg 69%
    07:00 +16°C° 0 mm 5 mps 759 mmHg 62%
    08:00 +16°C° 0 mm 5 mps 760 mmHg 56%
    09:00 +19°C° 0 mm 5 mps 760 mmHg 48%
    10:00 +21°C° 0 mm 4 mps 760 mmHg 41%
    11:00 +23°C° 0 mm 4 mps 760 mmHg 33%
    12:00 +26°C° 0 mm 4 mps 760 mmHg 30%
    13:00 +27°C° 0 mm 4 mps 759 mmHg 27%
    14:00 +29°C° 0 mm 4 mps 759 mmHg 24%
    15:00 +28°C° 0 mm 5 mps 759 mmHg 25%
    16:00 +28°C° 0 mm 5 mps 759 mmHg 27%
    17:00 +28°C° 0 mm 5 mps 758 mmHg 29%
    18:00 +26°C° 0 mm 5 mps 759 mmHg 34%
    19:00 +25°C° 0 mm 5 mps 759 mmHg 40%
    20:00 +22°C° 0 mm 4 mps 759 mmHg 45%
    21:00 +22°C° 0 mm 4 mps 760 mmHg 44%
    22:00 +21°C° 0 mm 4 mps 760 mmHg 44%
    23:00 +21°C° 0 mm 4 mps 760 mmHg 43%

    28 February, Wednesday

    Time Temperature Precipitation Wind Pressure Humidity
    00:00 +21°C° 0 mm 5 mps 760 mmHg 44%
    01:00 +20°C° 0 mm 5 mps 760 mmHg 46%
    02:00 +20°C° 0 mm 6 mps 760 mmHg 47%
    03:00 +20°C° 0 mm 6 mps 760 mmHg 51%
    04:00 +19°C° 0 mm 6 mps 760 mmHg 55%
    05:00 +19°C° 0 mm 6 mps 760 mmHg 58%
    06:00 +19°C° 0 mm 6 mps 760 mmHg 56%
    07:00 +20°C° 0 mm 6 mps 760 mmHg 53%
    08:00 +21°C° 0 mm 6 mps 761 mmHg 51%
    09:00 +23°C° 0 mm 6 mps 761 mmHg 45%
    10:00 +27°C° 0 mm 5 mps 761 mmHg 38%
    11:00 +29°C° 0 mm 4 mps 760 mmHg 32%
    12:00 +32°C° 0 mm 4 mps 760 mmHg 29%
    13:00 +34°C° 0 mm 4 mps 759 mmHg 26%
    14:00 +35°C° 0 mm 3 mps 758 mmHg 23%
    15:00 +35°C° 0 mm 4 mps 757 mmHg 24%
    16:00 +35°C° 0 mm 4 mps 757 mmHg 25%
    17:00 +35°C° 0 mm 4 mps 757 mmHg 26%
    18:00 +33°C° 0 mm 5 mps 757 mmHg 29%
    19:00 +30°C° 0 mm 5 mps 757 mmHg 33%
    20:00 +28°C° 0 mm 5 mps 757 mmHg 36%
    21:00 +28°C° 0 mm 5 mps 757 mmHg 35%
    22:00 +28°C° 0 mm 5 mps 756 mmHg 34%
    23:00 +28°C° 0 mm 4 mps 756 mmHg 33%

    1 March, Thursday

    Time Temperature Precipitation Wind Pressure Humidity
    00:00 +28°C° 0 mm 4 mps 756 mmHg 32%
    01:00 +28°C° 0 mm 4 mps 756 mmHg 32%
    02:00 +28°C° 0 mm 4 mps 756 mmHg 32%
    03:00 +28°C° 0 mm 4 mps 756 mmHg 35%
    04:00 +27°C° 0 mm 4 mps 756 mmHg 38%
    05:00 +27°C° 0 mm 4 mps 755 mmHg 41%
    06:00 +28°C° 0 mm 4 mps 756 mmHg 41%
    07:00 +29°C° 0 mm 4 mps 756 mmHg 41%
    08:00 +30°C° 0 mm 4 mps 756 mmHg 40%
    09:00 +33°C° 0 mm 4 mps 756 mmHg 37%
    10:00 +35°C° 0 mm 3 mps 756 mmHg 35%
    11:00 +37°C° 0 mm 3 mps 755 mmHg 32%
    12:00 +38°C° 0 mm 3 mps 755 mmHg 31%
    13:00 +38°C° 0 mm 4 mps 754 mmHg 30%
    14:00 +40°C° 0 mm 4 mps 754 mmHg 29%
    15:00 +37°C° 0 mm 5 mps 753 mmHg 33%
    16:00 +36°C° 0 mm 5 mps 753 mmHg 38%
    17:00 +35°C° 0 mm 6 mps 753 mmHg 43%
    18:00 +32°C° 0 mm 5 mps 754 mmHg 50%
    19:00 +29°C° 0 mm 5 mps 754 mmHg 58%
    20:00 +26°C° 0 mm 5 mps 755 mmHg 65%
    21:00 +26°C° 0 mm 5 mps 755 mmHg 68%
    22:00 +25°C° 0 mm 4 mps 755 mmHg 70%
    23:00 +23°C° 0 mm 4 mps 755 mmHg 72%

    2 March, Friday

    Time Temperature Precipitation Wind Pressure Humidity
    00:00 +23°C° 0 mm 4 mps 755 mmHg 74%
    01:00 +22°C° 0 mm 5 mps 755 mmHg 76%
    02:00 +22°C° 0 mm 5 mps 755 mmHg 77%
    03:00 +21°C° 0 mm 5 mps 755 mmHg 80%
    04:00 +20°C° 0 mm 5 mps 755 mmHg 83%
    05:00 +20°C° 0 mm 5 mps 756 mmHg 85%
    06:00 +20°C° 0 mm 4 mps 756 mmHg 82%
    07:00 +21°C° 0 mm 4 mps 757 mmHg 78%
    08:00 +21°C° 0 mm 4 mps 757 mmHg 75%
    09:00 +25°C° 0 mm 4 mps 757 mmHg 64%
    10:00 +27°C° 0 mm 4 mps 757 mmHg 54%
    11:00 +29°C° 0 mm 4 mps 757 mmHg 43%
    12:00 +30°C° 0 mm 5 mps 756 mmHg 39%
    13:00 +32°C° 0 mm 5 mps 756 mmHg 35%
    14:00 +33°C° 0 mm 6 mps 755 mmHg 31%
    15:00 +32°C° 0 mm 6 mps 755 mmHg 33%
    16:00 +30°C° 0 mm 7 mps 755 mmHg 35%
    17:00 +30°C° 0 mm 7 mps 755 mmHg 38%
    18:00 +28°C° 0 mm 7 mps 756 mmHg 43%
    19:00 +26°C° 0 mm 6 mps 756 mmHg 49%
    20:00 +23°C° 0 mm 6 mps 756 mmHg 55%
    21:00 +23°C° 0 mm 6 mps 757 mmHg 55%
    22:00 +23°C° 0 mm 6 mps 757 mmHg 55%
    23:00 +22°C° 0 mm 6 mps 757 mmHg 54%
    Show more